User: anonymous   Login
Location: Unspecified
(48.5670°N, 0.0000°E)
Time: 10:03:15
(UTC+00:00)
Language:

Altair - Orbit

View from above orbital plane
View from above orbital plane
View from above satellite
View from above satellite

Ground track
Ground track

The orbit data is extracted from the following two-line orbital elements,

1    50U 60009B   19199.81009390 -.00000093 +00000-0 -60988-4 0  9998
2    50 047.2324 079.8877 0113938 048.2077 312.8381 12.20109341629363
Epoch (UTC): 18 July 2019 19:26:32
Eccentricity: 0.0113938
inclination: 47.2324°
perigee height: 1501 km
apogee height: 1683 km
right ascension of ascending node: 79.8877°
argument of perigee: 48.2077°
revolutions per day: 12.20109341
mean anomaly at epoch: 312.8381°
orbit number at epoch: 62936

The dashed part of the orbit path shows where the satellite is in the earth's shadow,  

DLR